Time,TemperatureF,DewpointF,PressureIn,WindDirection,WindDirectionDegrees,WindSpeedMPH,WindSpeedGustMPH,Humidity,HourlyPrecipIn,Conditions,Clouds,dailyrainin,SoftwareType,DateUTC
2013-02-03 00:03:00,54.4,49.0,30.15,NE,44,0.0,1.0,82,0.00,,,0.00,weatherlink.com 1.10,2013-02-03 05:03:00,
2013-02-03 00:18:00,54.2,49.0,30.15,NNW,340,0.0,1.0,82,0.00,,,0.00,weatherlink.com 1.10,2013-02-03 05:18:00,
2013-02-03 00:33:00,54.3,48.0,30.15,NNW,328,0.0,2.0,80,0.00,,,0.00,weatherlink.com 1.10,2013-02-03 05:33:00,
2013-02-03 00:48:00,54.1,48.0,30.14,NNW,343,0.0,1.0,80,0.00,,,0.00,weatherlink.com 1.10,2013-02-03 05:48:00,
2013-02-03 01:03:00,53.8,48.0,30.14,NNW,328,1.0,1.0,81,0.00,,,0.00,weatherlink.com 1.10,2013-02-03 06:03:00,
2013-02-03 01:19:00,53.3,48.0,30.14,NW,321,1.0,2.0,82,0.00,,,0.00,weatherlink.com 1.10,2013-02-03 06:19:00,
2013-02-03 01:33:00,53.1,48.0,30.14,North,9,1.0,2.0,82,0.00,,,0.00,weatherlink.com 1.10,2013-02-03 06:33:00,
2013-02-03 01:48:00,53.0,48.0,30.13,NNW,341,1.0,3.0,82,0.00,,,0.00,weatherlink.com 1.10,2013-02-03 06:48:00,
2013-02-03 02:03:00,53.0,47.0,30.13,NW,321,2.0,5.0,81,0.00,,,0.00,weatherlink.com 1.10,2013-02-03 07:03:00,
2013-02-03 02:18:00,53.0,47.0,30.13,NW,316,5.0,7.0,81,0.00,,,0.00,weatherlink.com 1.10,2013-02-03 07:18:00,
2013-02-03 02:34:00,52.6,47.0,30.13,NW,316,2.0,4.0,82,0.00,,,0.00,weatherlink.com 1.10,2013-02-03 07:34:00,
2013-02-03 02:49:00,52.2,47.0,30.13,NW,314,1.0,6.0,82,0.00,,,0.00,weatherlink.com 1.10,2013-02-03 07:49:00,
2013-02-03 03:04:00,52.0,46.0,30.13,NNW,344,1.0,5.0,81,0.00,,,0.00,weatherlink.com 1.10,2013-02-03 08:04:00,
2013-02-03 03:19:00,51.8,46.0,30.13,North,355,3.0,4.0,79,0.00,,,0.00,weatherlink.com 1.10,2013-02-03 08:19:00,
2013-02-03 03:34:00,52.0,45.0,30.13,NW,319,4.0,7.0,76,0.00,,,0.00,weatherlink.com 1.10,2013-02-03 08:34:00,
2013-02-03 03:49:00,51.9,45.0,30.13,NW,326,2.0,5.0,76,0.00,,,0.00,weatherlink.com 1.10,2013-02-03 08:49:00,
2013-02-03 04:04:00,51.6,44.0,30.13,NNW,340,3.0,4.0,76,0.00,,,0.00,weatherlink.com 1.10,2013-02-03 09:04:00,
2013-02-03 04:19:00,51.4,44.0,30.13,NNW,328,1.0,4.0,76,0.00,,,0.00,weatherlink.com 1.10,2013-02-03 09:19:00,
2013-02-03 04:34:00,50.9,44.0,30.14,NW,315,1.0,4.0,77,0.00,,,0.00,weatherlink.com 1.10,2013-02-03 09:34:00,
2013-02-03 04:49:00,50.4,43.0,30.14,NW,308,0.0,2.0,77,0.00,,,0.00,weatherlink.com 1.10,2013-02-03 09:49:00,
2013-02-03 05:04:00,50.5,44.0,30.14,NW,308,1.0,2.0,77,0.00,,,0.00,weatherlink.com 1.10,2013-02-03 10:04:00,
2013-02-03 05:19:00,-999.0,-99.9,30.14,North,-999,-999.0,-999.0,-999,0.00,,,0.00,weatherlink.com 1.10,2013-02-03 10:19:00,
2013-02-03 05:34:00,-999.0,-99.9,30.14,North,-999,-999.0,-999.0,-999,0.00,,,0.00,weatherlink.com 1.10,2013-02-03 10:34:00,
2013-02-03 05:49:00,-999.0,-99.9,30.15,North,-999,-999.0,-999.0,-999,0.00,,,0.00,weatherlink.com 1.10,2013-02-03 10:49:00,
2013-02-03 06:04:00,-999.0,-99.9,30.15,North,-999,-999.0,-999.0,-999,0.00,,,0.00,weatherlink.com 1.10,2013-02-03 11:04:00,
2013-02-03 06:19:00,-999.0,-99.9,30.16,North,-999,-999.0,-999.0,-999,0.00,,,0.00,weatherlink.com 1.10,2013-02-03 11:19:00,
2013-02-03 06:34:00,-999.0,-99.9,30.16,North,-999,-999.0,-999.0,-999,0.00,,,0.00,weatherlink.com 1.10,2013-02-03 11:34:00,
2013-02-03 06:49:00,-999.0,-99.9,30.16,North,-999,-999.0,-999.0,-999,0.00,,,0.00,weatherlink.com 1.10,2013-02-03 11:49:00,
2013-02-03 07:04:00,-999.0,-99.9,30.17,North,-999,-999.0,-999.0,-999,0.00,,,0.00,weatherlink.com 1.10,2013-02-03 12:04:00,
2013-02-03 07:19:00,-999.0,-99.9,30.18,North,-999,-999.0,-999.0,-999,0.00,,,0.00,weatherlink.com 1.10,2013-02-03 12:19:00,
2013-02-03 07:34:00,50.9,44.0,30.18,NW,314,2.0,4.0,78,0.00,,,0.00,weatherlink.com 1.10,2013-02-03 12:34:00,
2013-02-03 07:49:00,52.0,45.0,30.19,NW,307,2.0,6.0,76,0.00,,,0.00,weatherlink.com 1.10,2013-02-03 12:49:00,
2013-02-03 08:04:00,52.3,45.0,30.20,NW,318,1.0,4.0,75,0.00,,,0.00,weatherlink.com 1.10,2013-02-03 13:04:00,
2013-02-03 08:19:00,53.2,44.0,30.20,ENE,68,4.0,6.0,70,0.00,,,0.00,weatherlink.com 1.10,2013-02-03 13:19:00,
2013-02-03 08:34:00,54.0,44.0,30.21,NW,317,2.0,7.0,70,0.00,,,0.00,weatherlink.com 1.10,2013-02-03 13:34:00,
2013-02-03 08:49:00,54.9,45.0,30.21,NNE,25,5.0,9.0,69,0.00,,,0.00,weatherlink.com 1.10,2013-02-03 13:49:00,
2013-02-03 09:05:00,56.3,45.0,30.21,North,11,1.0,9.0,66,0.00,,,0.00,weatherlink.com 1.10,2013-02-03 14:05:00,
2013-02-03 09:20:00,57.7,44.0,30.22,NE,42,7.0,10.0,61,0.00,,,0.00,weatherlink.com 1.10,2013-02-03 14:20:00,
2013-02-03 09:35:00,58.7,42.0,30.22,NW,307,3.0,9.0,54,0.00,,,0.00,weatherlink.com 1.10,2013-02-03 14:35:00,
2013-02-03 09:50:00,60.5,42.0,30.22,NW,325,2.0,6.0,51,0.00,,,0.00,weatherlink.com 1.10,2013-02-03 14:50:00,
2013-02-03 10:05:00,61.1,39.0,30.22,NE,40,3.0,9.0,45,0.00,,,0.00,weatherlink.com 1.10,2013-02-03 15:05:00,
2013-02-03 10:20:00,62.0,38.0,30.22,North,6,6.0,11.0,41,0.00,,,0.00,weatherlink.com 1.10,2013-02-03 15:20:00,
2013-02-03 10:35:00,63.3,36.0,30.22,North,360,3.0,12.0,37,0.00,,,0.00,weatherlink.com 1.10,2013-02-03 15:35:00,
2013-02-03 10:50:00,64.5,36.0,30.21,NNE,33,4.0,11.0,35,0.00,,,0.00,weatherlink.com 1.10,2013-02-03 15:50:00,
2013-02-03 11:05:00,65.2,37.0,30.20,ENE,67,5.0,12.0,35,0.00,,,0.00,weatherlink.com 1.10,2013-02-03 16:05:00,
2013-02-03 11:20:00,66.1,34.0,30.20,NNE,25,9.0,15.0,31,0.00,,,0.00,weatherlink.com 1.10,2013-02-03 16:20:00,
2013-02-03 11:35:00,66.9,36.0,30.19,NE,36,7.0,11.0,32,0.00,,,0.00,weatherlink.com 1.10,2013-02-03 16:35:00,
2013-02-03 11:50:00,67.5,36.0,30.18,North,6,8.0,11.0,31,0.00,,,0.00,weatherlink.com 1.10,2013-02-03 16:50:00,
2013-02-03 12:05:00,68.7,36.0,30.18,NE,39,1.0,9.0,30,0.00,,,0.00,weatherlink.com 1.10,2013-02-03 17:05:00,
2013-02-03 12:20:00,68.7,35.0,30.17,North,11,7.0,8.0,29,0.00,,,0.00,weatherlink.com 1.10,2013-02-03 17:20:00,
2013-02-03 12:35:00,68.9,35.0,30.16,NE,46,3.0,8.0,29,0.00,,,0.00,weatherlink.com 1.10,2013-02-03 17:35:00,
2013-02-03 12:50:00,70.1,34.0,30.15,NNE,29,6.0,11.0,27,0.00,,,0.00,weatherlink.com 1.10,2013-02-03 17:50:00,
2013-02-03 13:05:00,70.8,34.0,30.14,NW,318,5.0,9.0,26,0.00,,,0.00,weatherlink.com 1.10,2013-02-03 18:05:00,
2013-02-03 13:20:00,71.7,32.0,30.13,NW,322,3.0,7.0,23,0.00,,,0.00,weatherlink.com 1.10,2013-02-03 18:20:00,
2013-02-03 13:35:00,72.0,35.0,30.12,ENE,65,2.0,7.0,26,0.00,,,0.00,weatherlink.com 1.10,2013-02-03 18:35:00,
2013-02-03 13:50:00,71.8,37.0,30.11,NNE,23,5.0,9.0,28,0.00,,,0.00,weatherlink.com 1.10,2013-02-03 18:50:00,
2013-02-03 14:05:00,72.0,38.0,30.11,NW,310,8.0,8.0,29,0.00,,,0.00,weatherlink.com 1.10,2013-02-03 19:05:00,
2013-02-03 14:20:00,71.8,40.0,30.10,North,9,5.0,12.0,32,0.00,,,0.00,weatherlink.com 1.10,2013-02-03 19:20:00,
2013-02-03 14:35:00,71.4,41.0,30.10,NE,41,2.0,9.0,33,0.00,,,0.00,weatherlink.com 1.10,2013-02-03 19:35:00,
2013-02-03 14:50:00,72.6,42.0,30.10,NW,314,4.0,10.0,33,0.00,,,0.00,weatherlink.com 1.10,2013-02-03 19:50:00,
2013-02-03 15:05:00,72.2,42.0,30.09,NW,314,7.0,12.0,34,0.00,,,0.00,weatherlink.com 1.10,2013-02-03 20:05:00,
2013-02-03 15:20:00,71.6,43.0,30.09,WNW,302,8.0,10.0,36,0.00,,,0.00,weatherlink.com 1.10,2013-02-03 20:20:00,
2013-02-03 15:35:00,71.7,44.0,30.09,NW,308,5.0,13.0,37,0.00,,,0.00,weatherlink.com 1.10,2013-02-03 20:35:00,
2013-02-03 15:50:00,71.3,46.0,30.09,NW,307,4.0,11.0,40,0.00,,,0.00,weatherlink.com 1.10,2013-02-03 20:50:00,
2013-02-03 16:05:00,71.1,47.0,30.09,WNW,289,7.0,10.0,42,0.00,,,0.00,weatherlink.com 1.10,2013-02-03 21:05:00,
2013-02-03 16:20:00,70.6,47.0,30.09,NW,306,4.0,10.0,43,0.00,,,0.00,weatherlink.com 1.10,2013-02-03 21:20:00,
2013-02-03 16:35:00,70.6,48.0,30.10,NW,315,6.0,9.0,44,0.00,,,0.00,weatherlink.com 1.10,2013-02-03 21:35:00,
2013-02-03 16:50:00,69.2,51.0,30.10,WNW,287,6.0,12.0,52,0.00,,,0.00,weatherlink.com 1.10,2013-02-03 21:50:00,
2013-02-03 17:05:00,68.4,52.0,30.11,WSW,255,4.0,9.0,56,0.00,,,0.00,weatherlink.com 1.10,2013-02-03 22:05:00,
2013-02-03 17:21:00,66.8,53.0,30.10,WNW,288,5.0,9.0,62,0.00,,,0.00,weatherlink.com 1.10,2013-02-03 22:21:00,
2013-02-03 17:36:00,66.3,53.0,30.10,WNW,294,4.0,9.0,63,0.00,,,0.00,weatherlink.com 1.10,2013-02-03 22:36:00,
2013-02-03 17:51:00,65.6,53.0,30.10,WSW,240,2.0,7.0,65,0.00,,,0.00,weatherlink.com 1.10,2013-02-03 22:51:00,
2013-02-03 18:06:00,64.7,54.0,30.10,WNW,293,3.0,6.0,68,0.00,,,0.00,weatherlink.com 1.10,2013-02-03 23:06:00,
2013-02-03 18:21:00,63.4,55.0,30.10,West,271,3.0,6.0,74,0.00,,,0.00,weatherlink.com 1.10,2013-02-03 23:21:00,
2013-02-03 18:36:00,62.5,55.0,30.10,WNW,290,2.0,7.0,77,0.00,,,0.00,weatherlink.com 1.10,2013-02-03 23:36:00,
2013-02-03 18:51:00,61.9,56.0,30.10,NNW,338,2.0,5.0,80,0.00,,,0.00,weatherlink.com 1.10,2013-02-03 23:51:00,
2013-02-03 19:06:00,61.3,56.0,30.10,WSW,257,3.0,4.0,82,0.00,,,0.00,weatherlink.com 1.10,2013-02-04 00:06:00,
2013-02-03 19:21:00,60.8,56.0,30.11,West,281,2.0,4.0,84,0.00,,,0.00,weatherlink.com 1.10,2013-02-04 00:21:00,
2013-02-03 19:36:00,60.1,56.0,30.11,West,267,1.0,2.0,85,0.00,,,0.00,weatherlink.com 1.10,2013-02-04 00:36:00,
2013-02-03 19:51:00,59.7,56.0,30.11,West,278,1.0,2.0,87,0.00,,,0.00,weatherlink.com 1.10,2013-02-04 00:51:00,
2013-02-03 20:06:00,59.2,56.0,30.12,West,276,0.0,1.0,88,0.00,,,0.00,weatherlink.com 1.10,2013-02-04 01:06:00,
2013-02-03 20:21:00,58.5,55.0,30.12,West,277,0.0,1.0,89,0.00,,,0.00,weatherlink.com 1.10,2013-02-04 01:21:00,
2013-02-03 20:36:00,57.9,55.0,30.12,West,278,0.0,1.0,90,0.00,,,0.00,weatherlink.com 1.10,2013-02-04 01:36:00,
2013-02-03 20:51:00,57.5,55.0,30.12,WNW,298,0.0,1.0,90,0.00,,,0.00,weatherlink.com 1.10,2013-02-04 01:51:00,
2013-02-03 21:06:00,57.9,55.0,30.13,NW,316,1.0,3.0,89,0.00,,,0.00,weatherlink.com 1.10,2013-02-04 02:06:00,
2013-02-03 21:21:00,57.9,54.0,30.13,NW,317,2.0,3.0,88,0.00,,,0.00,weatherlink.com 1.10,2013-02-04 02:21:00,
2013-02-03 21:51:00,58.1,54.0,30.14,WNW,288,1.0,3.0,85,0.00,,,0.00,weatherlink.com 1.10,2013-02-04 02:51:00,
2013-02-03 22:06:00,57.7,54.0,30.14,NW,312,1.0,2.0,86,0.00,,,0.00,weatherlink.com 1.10,2013-02-04 03:06:00,
2013-02-03 22:21:00,57.1,53.0,30.14,NW,304,0.0,2.0,86,0.00,,,0.00,weatherlink.com 1.10,2013-02-04 03:21:00,
2013-02-03 22:36:00,56.8,53.0,30.14,NW,304,1.0,2.0,88,0.00,,,0.00,weatherlink.com 1.10,2013-02-04 03:36:00,
2013-02-03 22:51:00,56.2,53.0,30.14,NW,304,0.0,1.0,89,0.00,,,0.00,weatherlink.com 1.10,2013-02-04 03:51:00,
2013-02-03 23:06:00,55.5,53.0,30.14,NW,304,0.0,0.0,90,0.00,,,0.00,weatherlink.com 1.10,2013-02-04 04:06:00,
2013-02-03 23:21:00,54.9,52.0,30.14,NW,304,0.0,0.0,91,0.00,,,0.00,weatherlink.com 1.10,2013-02-04 04:21:00,
2013-02-03 23:36:00,54.8,53.0,30.13,NW,304,0.0,1.0,93,0.00,,,0.00,weatherlink.com 1.10,2013-02-04 04:36:00,
2013-02-03 23:51:00,54.6,53.0,30.12,NW,304,0.0,1.0,93,0.00,,,0.00,weatherlink.com 1.10,2013-02-04 04:51:00,